Location: Feigenhofen
(48.4939°N, 10.7793°E)
Time: 04:13:13
(UTC+00:00)

CZ-2D R/B - Pass Details

Date: 26 May 2022
Orbit: 791 x 845 km, 98.7° (Epoch: 24 June)

Event Time Altitude Azimuth Distance (km) Brightness Sun altitude
Rises 02:31:53 0° 5° (N) 3,386 6.2 -7.6°
Reaches altitude 10° 02:34:45 10° 350° (N) 2,439 5.1 -7.2°
Maximum altitude 02:38:42 21° 303° (WNW) 1,757 3.7 -6.8°
Drops below altitude 10° 02:42:36 10° 255° (WSW) 2,401 4.0 -6.3°
Enters shadow 02:43:48 - 247° (WSW) 2,769 4.3 -6.1°
